sat.trackr.live / text

‹ back to catalog

STARLINK-2590

NORAD 48397 · 2021-038AW

PAYLOAD ACTIVE UNKNOWN

§ Identity

Operator
Country
US
Launch date
2021-05-04
Launch site
AFETR
Launch vehicle
Mass (kg)
RCS (m²)

Purposes: comms

External: N2YO · Heavens-Above · Gunter

§ Orbital elements

Epoch: 2026-09-20T04:25:37.166016Z

Period
94.01 min
Inclination
53.1603°
Eccentricity
0.0001165
Mean motion
15.31706189 rev/d
Perigee alt
469.9 km
Apogee alt
471.5 km
Semi-major
6,848.9 km
B*
8.1695e-7
RAAN
147.4953°
Arg perigee
95.5245°
Mean anomaly
264.5889°
Rev number
29,846

§ Raw data

STARLINK-25901 48397U 21038AW  26263.18445794 -.00000340  00000+0  81695-6 0  99982 48397  53.1603 147.4953 0001165  95.5245 264.5889 15.31706189298469

JSON: /api/v1/satellites/48397 · /tle

For live sub-satellite position, see the globe view (requires WebGL).

§ Visibility from observer

Set your observer location to see the next 7 days of passes ≥ 10°. The values pass through the URL so the page stays shareable.

No JS? Fill the form by hand. The geolocation button needs JavaScript.